| time (UTC) | temp C | wind direction | speed KPH | gust KPH | rain 1hr cm | rain 24hr cm | rain mn cm | humidity % | barometer mb |
| 20260503050048 | 8 | 0.0 | 0.0 | 0.00 | 0.00 | 0.00 | 30 | 1012.0 | |
| 20260503044544 | 9 | 0.0 | 0.0 | 0.00 | 0.00 | 0.00 | 29 | 1012.3 | |
| 20260503043039 | 10 | 0.0 | 0.0 | 0.00 | 0.00 | 0.00 | 29 | 1012.3 | |
| 20260503041536 | 10 | 0.0 | 0.0 | 0.00 | 0.00 | 0.00 | 28 | 1012.3 | |
| 20260503040030 | 10 | 0.0 | 0.0 | 0.00 | 0.00 | 0.00 | 27 | 1012.2 | |
| 20260503034528 | 11 | 0.0 | 0.0 | 0.00 | 0.00 | 0.00 | 27 | 1012.2 | |
| 20260503033027 | 11 | 0.0 | 0.0 | 0.00 | 0.00 | 0.00 | 25 | 1012.3 | |
| 20260503031518 | 12 | 0.0 | 0.0 | 0.00 | 0.00 | 0.00 | 23 | 1012.2 | |
| 20260503030014 | 12 | 0.0 | 0.0 | 0.00 | 0.00 | 0.00 | 22 | 1012.3 | |
| 20260503024512 | 13 | 0.0 | 0.0 | 0.00 | 0.00 | 0.00 | 23 | 1012.3 | |
| 20260503023004 | 15 | 0.0 | 0.0 | 0.00 | 0.00 | 0.00 | 22 | 1012.1 | |
| 20260503021602 | 15 | 0.0 | 0.0 | 0.00 | 0.00 | 0.00 | 21 | 1012.1 | |
| 20260503020059 | 16 | 0.0 | 0.0 | 0.00 | 0.00 | 0.00 | 17 | 1012.1 | |
| 20260503014621 | 17 | 0.0 | 0.0 | 0.00 | 0.00 | 0.00 | 15 | 1011.8 | |
| 20260503013048 | 18 | 0.0 | 0.0 | 0.00 | 0.00 | 0.00 | 13 | 1011.7 | |
| 20260503011550 | 18 | 0.0 | 0.0 | 0.00 | 0.00 | 0.00 | 12 | 1011.5 | |
| 20260503010049 | 19 | 0.0 | 0.0 | 0.00 | 0.00 | 0.00 | 11 | 1011.4 | |
| 20260503004537 | 20 | 0.0 | 0.0 | 0.00 | 0.00 | 0.00 | 11 | 1011.4 | |
| 20260503003030 | 20 | 0.0 | 0.0 | 0.00 | 0.00 | 0.00 | 12 | 1011.4 | |
| 20260503001527 | 20 | 0.0 | 0.0 | 0.00 | 0.00 | 0.00 | 11 | 1011.6 | |
| 20260503000022 | 20 | 0.0 | 0.0 | 0.00 | 0.00 | 0.00 | 12 | 1011.8 | |
| 20260502234517 | 20 | 0.0 | 0.0 | 0.00 | 0.00 | 0.00 | 12 | 1011.8 | |
| 20260502233014 | 21 | 0.0 | 0.0 | 0.00 | 0.00 | 0.00 | 11 | 1011.9 | |
| 20260502231508 | 21 | 0.0 | 0.0 | 0.00 | 0.00 | 0.00 | 12 | 1012.0 | |
| 20260502230005 | 21 | 0.0 | 0.0 | 0.00 | 0.00 | 0.00 | 12 | 1012.2 | |
| 20260502224614 | 21 | 0.0 | 0.0 | 0.00 | 0.00 | 0.00 | 11 | 1012.1 | |
| 20260502223056 | 21 | 0.0 | 0.0 | 0.00 | 0.00 | 0.00 | 12 | 1012.2 | |
| 20260502221552 | 21 | 0.0 | 0.0 | 0.00 | 0.00 | 0.00 | 12 | 1012.6 | |
| 20260502220047 | 21 | 0.0 | 0.0 | 0.00 | 0.00 | 0.00 | 12 | 1012.6 | |
| 20260502214542 | 22 | 0.0 | 0.0 | 0.00 | 0.00 | 0.00 | 12 | 1012.9 | |
| 20260502213038 | 22 | 0.0 | 0.0 | 0.00 | 0.00 | 0.00 | 12 | 1013.4 | |
| 20260502211541 | 22 | 0.0 | 0.0 | 0.00 | 0.00 | 0.00 | 13 | 1013.7 | |
| 20260502210037 | 23 | 0.0 | 0.0 | 0.00 | 0.00 | 0.00 | 12 | 1013.9 | |
| 20260502204525 | 23 | 0.0 | 0.0 | 0.00 | 0.00 | 0.00 | 12 | 1014.0 | |
| 20260502203020 | 23 | 0.0 | 0.0 | 0.00 | 0.00 | 0.00 | 13 | 1014.2 | |
| 20260502201516 | 22 | 0.0 | 0.0 | 0.00 | 0.00 | 0.00 | 13 | 1014.4 | |
| 20260502200015 | 22 | 0.0 | 0.0 | 0.00 | 0.00 | 0.00 | 15 | 1014.6 | |
| 20260502194507 | 23 | 0.0 | 0.0 | 0.00 | 0.00 | 0.00 | 13 | 1014.9 | |
| 20260502193003 | 23 | 0.0 | 0.0 | 0.00 | 0.00 | 0.00 | 14 | 1015.2 | |
| 20260502191603 | 22 | 0.0 | 0.0 | 0.00 | 0.00 | 0.00 | 15 | 1015.3 | |
| 20260502190057 | 22 | 0.0 | 0.0 | 0.00 | 0.00 | 0.00 | 15 | 1015.6 | |
| 20260502184556 | 22 | 0.0 | 0.0 | 0.00 | 0.00 | 0.00 | 15 | 1015.9 | |
| 20260502183057 | 21 | 0.0 | 0.0 | 0.00 | 0.00 | 0.00 | 15 | 1016.1 | |
| 20260502181545 | 21 | 0.0 | 0.0 | 0.00 | 0.00 | 0.00 | 15 | 1016.3 | |
| 20260502163020 | 18 | 0.0 | 0.0 | 0.00 | 0.00 | 0.00 | 20 | 1017.7 | |
| 20260502161508 | 17 | 0.0 | 0.0 | 0.00 | 0.00 | 0.00 | 20 | 1018.0 | |
| 20260502151600 | 13 | 0.0 | 0.0 | 0.00 | 0.00 | 0.00 | 32 | 1018.6 | |
| 20260502123005 | 0 | 0.0 | 0.0 | 0.00 | 0.00 | 0.00 | 67 | 1019.2 | |
| 20260502121558 | 0 | 0.0 | 0.0 | 0.00 | 0.00 | 0.00 | 66 | 1019.0 | |
| 20260502114604 | 1 | 0.0 | 0.0 | 0.00 | 0.00 | 0.00 | 63 | 1019.0 | |
| 20260502113048 | 1 | 0.0 | 0.0 | 0.00 | 0.00 | 0.00 | 63 | 1018.9 | |
| 20260502111539 | 1 | 0.0 | 0.0 | 0.00 | 0.00 | 0.00 | 62 | 1018.9 | |
| 20260502110037 | 1 | 0.0 | 0.0 | 0.00 | 0.00 | 0.00 | 62 | 1018.9 | |
| 20260502104532 | 2 | 0.0 | 0.0 | 0.00 | 0.00 | 0.00 | 62 | 1018.8 | |
| 20260502103033 | 2 | 0.0 | 0.0 | 0.00 | 0.00 | 0.00 | 60 | 1018.9 | |
| 20260502101541 | 2 | 0.0 | 0.0 | 0.00 | 0.00 | 0.00 | 57 | 1018.9 | |
| 20260502091505 | 2 | 0.0 | 0.0 | 0.00 | 0.00 | 0.00 | 55 | 1018.5 | |
| 20260502090114 | 3 | 0.0 | 0.0 | 0.00 | 0.00 | 0.00 | 54 | 1018.7 | |
| 20260502071530 | 5 | 0.0 | 0.0 | 0.00 | 0.00 | 0.00 | 48 | 1019.3 | |
| 20260502070043 | 6 | 0.0 | 0.0 | 0.00 | 0.00 | 0.00 | 45 | 1019.4 | |
| 20260502064521 | 6 | 0.0 | 0.0 | 0.00 | 0.00 | 0.00 | 44 | 1019.5 | |
| 20260502063016 | 7 | 0.0 | 0.0 | 0.00 | 0.00 | 0.00 | 43 | 1019.4 | |
| 20260502061513 | 7 | 0.0 | 0.0 | 0.00 | 0.00 | 0.00 | 43 | 1019.5 | |
| 20260502060011 | 7 | 0.0 | 0.0 | 0.00 | 0.00 | 0.00 | 42 | 1019.4 | |
| 20260502054503 | 8 | 0.0 | 0.0 | 0.00 | 0.00 | 0.00 | 42 | 1019.5 | |
| 20260502053059 | 8 | 0.0 | 0.0 | 0.00 | 0.00 | 0.00 | 42 | 1019.4 | |
| 20260502051626 | 8 | 0.0 | 0.0 | 0.00 | 0.00 | 0.00 | 41 | 1019.4 |